STARLINK-5717, 55618

Orbit data source: Space-Track

STARLINK-5717, 55618 is a payload satellite owned by SpaceX/Seattle (US) in LEO that was launched on Sun, 12 Feb 2023 UTC via an FALCON 9 launch vehicle from the Air Force Eastern Test Range (AFETR). Payload-class satellites include a variety of spacecraft equipped with specific instruments for various scientific and technological missions. These include communications satellites like Starlink; space stations such as the ISS; scientific satellites like the Hubble; Earth observation satellites from companies like Planet Labs, Umbra, and HawkEye 360; GPS; miniature CubeSats for education and research; and military/defense satellites.

Loading next visibility...
Identifier
55618, 2023-020BB
Orbit
LEO
Country
Flag of USUS
Related business
Manufacturer
SpaceX/Seattle
Mission
Operational Commercial Communications
Bus & Motor
STARLINK, Unknown motor
Mass
305 kg wet, ~290 kg dry
Launch date (UTC)
2023-02-12 (3 years ago)
Launch vehicle
FALCON 9
Launch site
Air Force Eastern Test Range (AFETR)
Object type
Payload
Rocket body
Debris
Shape & HBR
Box + 1 Pan, 10.1 m
Radar Cross Section
13.562 m², Large (>1 m²)

Expand to show TLE details & history
Last TLE update: 2 days ago

TLE from 2 days ago
0 STARLINK-5717
1 55618U 23020BB  26171.23363183  .00001367  00000-0  59211-4 0  9997
2 55618  43.0023 134.9807 0001486 269.4870  90.5811 15.27577904184729
Epoch: 2026-06-20T05:36Z
TLE epoch observation values (Epoch: 2026-06-20T05:36:25.790Z)
Latitude
-0.00003°
Longitude
142.42202°
Altitude
482.842 km
Speed
7.626 km/s
True Right ascension
08h 59m 55s
True Declination
0° 00' 00"
Sunlit
Object was in daylight at epoch
Visualization orbit readout
Latitude
Unknown
Longitude
Unknown
Altitude
Unknown
Speed
Unknown
Apparent Right ascension
Unknown
Apparent Declination
Unknown
Sunlit
N/A
Visualization observer readout
Local Sidereal Time
21:42:50
Azimuth
Unknown
Elevation
Unknown
Doppler factor
Unknown
Orbital elements
Apogee altitude
486.02 km
Perigee altitude
483.98 km
Semi-major axis
6,863.137 km
Eccentricity
0.00015
Inclination
43.0023°
RAAN
134.9807°
Arg. of periapsis
269.487°
True anomaly
90.59813°
Mean anomaly
90.5811°
Eccentric anomaly
90.58961°
Mean motion
3.81733 °/min
Orbital period
94.31 mins
BSTAR
0.000059211
Loading maneuver chart data...
Computing Atmospheric mass density...
Loading historical data...
Loading historical data...
Loading historical data...
Loading historical data...
Loading historical data...
Loading historical data...
Loading historical data...

Documentation

Showing up to 5 results
|